This is the latest recevied weather packets stored in our database for station/object VK4NB-13. If no packets are shown the sender has not sent any weather packets the latest 10 day(s).
| Time | Temp. | Humidity | Pressure | Rain* | Wind** | Luminosity | Snow |
|---|---|---|---|---|---|---|---|
| 1777854623 | 25.56° C | 84% | 1017.4 hPa | 0 mm | - | - | - |
| 1777851601 | 25° C | 87% | 1017.5 hPa | 0 mm | - | - | - |
| 1777851302 | 25° C | 87% | 1017.6 hPa | 0 mm | - | - | - |
| 1777850401 | 24.44° C | 87% | 1017.7 hPa | 0 mm | - | - | - |
| 1777850101 | 24.44° C | 90% | 1017.4 hPa | 0 mm | - | - | - |
| 1777847402 | 23.33° C | 91% | 1017.4 hPa | 0 mm | - | - | - |
| 1777846201 | 22.78° C | 92% | 1017.4 hPa | 0 mm | - | - | - |
| 1777842322 | 21.67° C | 93% | 1016.7 hPa | 0 mm | - | - | - |
| 1777842001 | 21.11° C | 95% | 1016.7 hPa | 0 mm | - | - | - |
| 1777841101 | 20.56° C | 99% | 1016.6 hPa | 0 mm | - | - | - |
| 1777840502 | 20° C | 99% | 1016.6 hPa | 0 mm | - | - | - |
| 1777840202 | 20° C | 99% | 1016.4 hPa | 0 mm | - | - | - |
| 1777838701 | 20.56° C | 99% | 1016.3 hPa | 0 mm | - | - | - |
| 1777837801 | 20.56° C | 99% | 1016.2 hPa | 0 mm | - | - | - |
| 1777836001 | 20.56° C | 99% | 1015.9 hPa | 0 mm | - | - | - |
| 1777835401 | 20.56° C | 99% | 1015.9 hPa | 0 mm | - | - | - |
| 1777834802 | 20.56° C | 99% | 1015.8 hPa | 0 mm | - | - | - |
| 1777833602 | 20.56° C | 99% | 1016.3 hPa | 0 mm | - | - | - |
| 1777832402 | 20.56° C | 99% | 1016 hPa | 0 mm | - | - | - |
| 1777832122 | 20.56° C | 99% | 1015.9 hPa | 0 mm | - | - | - |
| 1777831502 | 20.56° C | 99% | 1016.1 hPa | 0 mm | - | - | - |
| 1777830602 | 20.56° C | 99% | 1016.1 hPa | 0 mm | - | - | - |
| 1777829703 | 20.56° C | 99% | 1016.2 hPa | 0.51 mm | - | - | - |
| 1777828802 | 21.11° C | 99% | 1016.1 hPa | 0.51 mm | - | - | - |
| 1777827302 | 21.11° C | 99% | 1016.1 hPa | 0.51 mm | - | - | - |
* Rain latest hour (hover to see other rain measurements)
** Current wind speed in m/s (hover to see current wind gust speed)